KAL094 KIAD-CYEG

Flight info

Callsign KAL094
Flight time N/A
Altitude 30000
Route MCRAY2 MCRAY Q178 LEJOY DCT TVC/M084F300 DCT 48N090W/M084F320 55N100W 59N110W 61N120W/M084F340 62N130W/N0483F340 DCT TIBOY NCA17 ORT J124 GKN DCT DTOUR DCT 62N160W DCT LESAD B932 MORLY/M084F340 R338 NATES/M084F360 R220 NUZAN/M085F370 R220 NODAN/N0488F360 R217 ASTER Y514 SDE Y512 GTC Y142 SAMON Y14 SUGNO Y16 SAPRA Y685 GUKDO CYEG/20
Aircraft B77W/H-SDE2FGHIJ1J3J5M1P2RWXYZ/LB1D1

Departure

Time N/A
Airport Washington Dulles International Airport (KIAD)

Arrival

Time 2026-04-27 21:33
Airport Edmonton International Airport (CYEG)
Time Latitude Longitude Altitude Speed Heading
2026-04-27 20:29 55.88641 -102.44295 26642 ft 448 kts 270°
2026-04-27 20:29 55.88351 -102.49712 26160 ft 445 kts 261°
2026-04-27 20:29 55.87696 -102.55066 25680 ft 441 kts 259°
2026-04-27 20:29 55.86998 -102.60351 25193 ft 438 kts 258°
2026-04-27 20:30 55.86298 -102.65618 24700 ft 434 kts 258°
2026-04-27 20:30 55.85608 -102.70785 24183 ft 430 kts 258°
2026-04-27 20:30 55.84924 -102.75891 24069 ft 424 kts 258°
2026-04-27 20:30 55.84236 -102.81019 24068 ft 431 kts 258°
2026-04-27 20:31 55.83541 -102.86180 24064 ft 431 kts 258°
2026-04-27 20:31 55.82843 -102.91344 24062 ft 435 kts 258°
2026-04-27 20:31 55.82131 -102.96592 24064 ft 447 kts 258°
2026-04-27 20:31 55.81394 -103.02016 24057 ft 459 kts 258°
2026-04-27 20:32 55.80633 -103.07589 24062 ft 464 kts 258°
2026-04-27 20:32 55.79870 -103.13148 24062 ft 463 kts 258°
2026-04-27 20:32 55.79115 -103.18630 24061 ft 464 kts 258°
2026-04-27 20:32 55.78341 -103.24234 24069 ft 464 kts 258°
2026-04-27 20:33 55.77580 -103.29724 24070 ft 464 kts 258°
2026-04-27 20:33 55.76810 -103.35248 24064 ft 464 kts 258°
2026-04-27 20:33 55.76031 -103.40829 24057 ft 464 kts 258°
2026-04-27 20:33 55.75256 -103.46355 24059 ft 464 kts 258°
2026-04-27 20:34 55.74479 -103.51878 24052 ft 464 kts 258°
2026-04-27 20:34 55.73698 -103.57407 24049 ft 464 kts 258°
2026-04-27 20:34 55.72911 -103.62962 24048 ft 464 kts 258°
2026-04-27 20:34 55.72127 -103.68469 24054 ft 465 kts 257°
2026-04-27 20:35 55.71333 -103.74036 24054 ft 464 kts 257°
2026-04-27 20:35 55.70540 -103.79574 24054 ft 465 kts 257°
2026-04-27 20:35 55.69741 -103.85124 24055 ft 465 kts 257°
2026-04-27 20:35 55.68954 -103.90586 24058 ft 464 kts 257°
2026-04-27 20:36 55.68151 -103.96132 24062 ft 465 kts 257°
2026-04-27 20:36 55.67347 -104.01668 24063 ft 465 kts 257°
2026-04-27 20:36 55.66537 -104.07218 24065 ft 465 kts 257°
2026-04-27 20:36 55.65729 -104.12746 24065 ft 465 kts 257°
2026-04-27 20:37 55.64921 -104.18249 24066 ft 465 kts 257°
2026-04-27 20:37 55.64111 -104.23743 24063 ft 466 kts 257°
2026-04-27 20:37 55.63286 -104.29324 24064 ft 464 kts 257°
2026-04-27 20:37 55.62470 -104.34829 24066 ft 464 kts 257°
2026-04-27 20:38 55.61652 -104.40321 24067 ft 465 kts 257°
2026-04-27 20:38 55.60827 -104.45845 24067 ft 466 kts 257°
2026-04-27 20:38 55.60006 -104.51321 24069 ft 464 kts 257°
2026-04-27 20:38 55.59181 -104.56805 24071 ft 464 kts 257°
2026-04-27 20:39 55.58351 -104.62309 24069 ft 464 kts 257°
2026-04-27 20:39 55.57523 -104.67779 24066 ft 465 kts 257°
2026-04-27 20:39 55.56681 -104.73317 24068 ft 463 kts 256°
2026-04-27 20:39 55.55856 -104.78735 24062 ft 463 kts 257°
2026-04-27 20:40 55.55022 -104.84187 24064 ft 463 kts 257°
2026-04-27 20:40 55.54180 -104.89675 24061 ft 463 kts 257°
2026-04-27 20:40 55.53335 -104.95158 24063 ft 462 kts 257°
2026-04-27 20:40 55.52490 -105.00630 24064 ft 462 kts 257°
2026-04-27 20:41 55.51646 -105.06074 24059 ft 462 kts 257°
2026-04-27 20:41 55.50806 -105.11478 24064 ft 461 kts 257°
2026-04-27 20:41 55.49952 -105.16954 24064 ft 461 kts 257°
2026-04-27 20:41 55.49106 -105.22362 24061 ft 460 kts 257°
2026-04-27 20:42 55.48251 -105.27803 24068 ft 459 kts 257°
2026-04-27 20:42 55.47408 -105.33154 24071 ft 458 kts 257°
2026-04-27 20:42 55.46552 -105.38573 24072 ft 458 kts 257°
2026-04-27 20:42 55.45697 -105.43964 24073 ft 458 kts 257°
2026-04-27 20:43 55.44844 -105.49322 24076 ft 458 kts 257°
2026-04-27 20:43 55.43978 -105.54752 24071 ft 457 kts 257°
2026-04-27 20:43 55.43131 -105.60044 24074 ft 457 kts 257°
2026-04-27 20:43 55.42263 -105.65448 24076 ft 456 kts 256°
2026-04-27 20:44 55.41396 -105.70833 24080 ft 457 kts 256°
2026-04-27 20:44 55.40530 -105.76194 24077 ft 457 kts 256°
2026-04-27 20:44 55.39673 -105.81480 24081 ft 455 kts 256°
2026-04-27 20:44 55.38797 -105.86867 24084 ft 456 kts 256°
2026-04-27 20:45 55.37926 -105.92207 24086 ft 455 kts 256°
2026-04-27 20:45 55.37052 -105.97548 24080 ft 454 kts 256°
2026-04-27 20:45 55.36192 -106.02788 24079 ft 452 kts 256°
2026-04-27 20:45 55.35318 -106.08096 24089 ft 452 kts 256°
2026-04-27 20:46 55.34443 -106.13396 24083 ft 451 kts 256°
2026-04-27 20:46 55.33566 -106.18688 24087 ft 450 kts 256°
2026-04-27 20:46 55.32696 -106.23927 24081 ft 451 kts 256°
2026-04-27 20:46 55.31812 -106.29227 24084 ft 450 kts 256°
2026-04-27 20:47 55.30937 -106.34465 24077 ft 449 kts 256°
2026-04-27 20:47 55.30056 -106.39717 24085 ft 450 kts 256°
2026-04-27 20:47 55.29177 -106.44947 24087 ft 448 kts 256°
2026-04-27 20:47 55.28294 -106.50183 24086 ft 448 kts 256°
2026-04-27 20:48 55.27409 -106.55411 24088 ft 449 kts 256°
2026-04-27 20:48 55.26517 -106.60673 24088 ft 449 kts 256°
2026-04-27 20:48 55.25635 -106.65855 24075 ft 447 kts 256°
2026-04-27 20:48 55.24743 -106.71077 24078 ft 446 kts 256°
2026-04-27 20:49 55.23856 -106.76261 24078 ft 445 kts 256°
2026-04-27 20:49 55.22975 -106.81391 24075 ft 445 kts 256°
2026-04-27 20:49 55.22087 -106.86547 24079 ft 444 kts 256°
2026-04-27 20:49 55.21197 -106.91703 24078 ft 443 kts 256°
2026-04-27 20:50 55.20305 -106.96854 24075 ft 442 kts 256°
2026-04-27 20:50 55.19413 -107.01991 24072 ft 441 kts 256°
2026-04-27 20:50 55.18515 -107.07147 24071 ft 443 kts 256°
2026-04-27 20:50 55.17620 -107.12273 24075 ft 442 kts 256°
2026-04-27 20:51 55.16733 -107.17335 24076 ft 441 kts 256°
2026-04-27 20:51 55.15825 -107.22510 24069 ft 441 kts 256°
2026-04-27 20:51 55.14933 -107.27566 24070 ft 439 kts 256°
2026-04-27 20:51 55.14035 -107.32653 24069 ft 440 kts 256°
2026-04-27 20:52 55.13131 -107.37759 24065 ft 439 kts 256°
2026-04-27 20:52 55.12231 -107.42820 24074 ft 439 kts 256°
2026-04-27 20:52 55.11313 -107.47987 24074 ft 455 kts 256°
2026-04-27 20:52 55.10354 -107.53366 24068 ft 466 kts 256°
2026-04-27 20:53 55.09394 -107.58730 24065 ft 466 kts 256°
2026-04-27 20:53 55.08425 -107.64121 24066 ft 465 kts 256°
2026-04-27 20:53 55.07458 -107.69488 24077 ft 467 kts 255°
2026-04-27 20:53 55.06486 -107.74864 24075 ft 468 kts 255°
2026-04-27 20:54 55.04518 -107.85704 24075 ft 468 kts 255°
2026-04-27 20:54 55.03536 -107.91089 24070 ft 467 kts 255°
2026-04-27 20:54 55.02550 -107.96481 24058 ft 469 kts 255°
2026-04-27 20:55 55.01564 -108.01856 24069 ft 468 kts 255°
2026-04-27 20:55 55.00579 -108.07213 24059 ft 468 kts 255°
2026-04-27 20:55 54.99583 -108.12610 24067 ft 468 kts 255°
2026-04-27 20:55 54.98596 -108.17947 24059 ft 467 kts 255°
2026-04-27 20:56 54.97596 -108.23341 24058 ft 469 kts 255°
2026-04-27 20:56 54.96597 -108.28708 24053 ft 469 kts 255°
2026-04-27 20:56 54.95584 -108.34133 24056 ft 470 kts 255°
2026-04-27 20:56 54.94579 -108.39507 24049 ft 470 kts 255°
2026-04-27 20:57 54.93572 -108.44876 24046 ft 470 kts 255°
2026-04-27 20:57 54.92559 -108.50256 24045 ft 470 kts 255°
2026-04-27 20:57 54.91541 -108.55650 24042 ft 471 kts 255°
2026-04-27 20:57 54.90518 -108.61055 24034 ft 471 kts 255°
2026-04-27 20:58 54.89491 -108.66463 24031 ft 471 kts 254°
2026-04-27 20:58 54.88467 -108.71844 24023 ft 471 kts 254°
2026-04-27 20:58 54.87453 -108.77155 24024 ft 471 kts 254°
2026-04-27 20:58 54.86425 -108.82522 24018 ft 470 kts 254°
2026-04-27 20:59 54.85384 -108.87944 24021 ft 471 kts 254°
2026-04-27 20:59 54.84345 -108.93344 24014 ft 472 kts 254°
2026-04-27 20:59 54.83311 -108.98700 24016 ft 472 kts 254°
2026-04-27 20:59 54.82269 -109.04085 24017 ft 473 kts 254°
2026-04-27 21:00 54.81228 -109.09445 24019 ft 472 kts 254°
2026-04-27 21:00 54.80175 -109.14851 24023 ft 473 kts 254°
2026-04-27 21:00 54.79124 -109.20238 24024 ft 473 kts 254°
2026-04-27 21:00 54.78075 -109.25594 24027 ft 473 kts 254°
2026-04-27 21:01 54.77014 -109.30998 24034 ft 473 kts 254°
2026-04-27 21:01 54.75959 -109.36356 24034 ft 473 kts 254°
2026-04-27 21:01 54.74898 -109.41732 24035 ft 473 kts 254°
2026-04-27 21:01 54.73831 -109.47124 24034 ft 474 kts 254°
2026-04-27 21:02 54.72772 -109.52457 24039 ft 473 kts 254°
2026-04-27 21:02 54.71693 -109.57880 24035 ft 473 kts 254°
2026-04-27 21:02 54.70624 -109.63232 24040 ft 473 kts 254°
2026-04-27 21:02 54.69559 -109.68555 24041 ft 473 kts 253°
2026-04-27 21:03 54.68481 -109.73924 24046 ft 473 kts 253°
2026-04-27 21:03 54.67408 -109.79259 24045 ft 472 kts 253°
2026-04-27 21:03 54.66329 -109.84604 24049 ft 472 kts 253°
2026-04-27 21:03 54.65252 -109.89928 24052 ft 472 kts 253°
2026-04-27 21:04 54.64163 -109.95298 24049 ft 472 kts 253°
2026-04-27 21:04 54.63084 -110.00599 24058 ft 472 kts 253°
2026-04-27 21:04 54.62000 -110.05916 24055 ft 472 kts 253°
2026-04-27 21:04 54.60914 -110.11223 24060 ft 472 kts 253°
2026-04-27 21:05 54.59816 -110.16577 24063 ft 473 kts 253°
2026-04-27 21:05 54.58725 -110.21886 24064 ft 472 kts 253°
2026-04-27 21:05 54.57630 -110.27194 24065 ft 472 kts 253°
2026-04-27 21:05 54.56531 -110.32514 24070 ft 472 kts 253°
2026-04-27 21:06 54.55431 -110.37818 24073 ft 472 kts 253°
2026-04-27 21:06 54.54317 -110.43182 24073 ft 472 kts 253°
2026-04-27 21:06 54.53224 -110.48428 24069 ft 472 kts 253°
2026-04-27 21:06 54.52115 -110.53733 24067 ft 473 kts 253°
2026-04-27 21:07 54.50996 -110.59076 24066 ft 473 kts 253°
2026-04-27 21:07 54.49886 -110.64362 24060 ft 473 kts 253°
2026-04-27 21:07 54.48772 -110.69656 24052 ft 474 kts 253°
2026-04-27 21:07 54.47641 -110.75008 24055 ft 474 kts 253°
2026-04-27 21:08 54.46525 -110.80283 24045 ft 474 kts 253°
2026-04-27 21:08 54.45398 -110.85593 24046 ft 474 kts 253°
2026-04-27 21:08 54.44274 -110.90876 24043 ft 474 kts 253°
2026-04-27 21:08 54.43145 -110.96170 24043 ft 474 kts 253°
2026-04-27 21:09 54.42007 -111.01491 24043 ft 475 kts 253°
2026-04-27 21:09 54.40867 -111.06806 24038 ft 475 kts 253°
2026-04-27 21:09 54.39714 -111.12170 24040 ft 475 kts 252°
2026-04-27 21:09 54.38575 -111.17454 24039 ft 477 kts 252°
2026-04-27 21:10 54.37426 -111.22771 24036 ft 477 kts 253°
2026-04-27 21:10 54.36271 -111.28098 24037 ft 476 kts 253°
2026-04-27 21:10 54.35120 -111.33395 24035 ft 476 kts 253°
2026-04-27 21:10 54.33974 -111.38657 24043 ft 476 kts 253°
2026-04-27 21:11 54.32814 -111.43967 24031 ft 475 kts 253°
2026-04-27 21:11 54.31658 -111.49250 24032 ft 476 kts 253°
2026-04-27 21:11 54.30499 -111.54531 24036 ft 476 kts 253°
2026-04-27 21:11 54.29336 -111.59817 24032 ft 476 kts 253°
2026-04-27 21:12 54.28168 -111.65110 24036 ft 476 kts 252°
2026-04-27 21:12 54.26996 -111.70412 24040 ft 478 kts 252°
2026-04-27 21:12 54.25822 -111.75705 24035 ft 478 kts 252°
2026-04-27 21:12 54.24652 -111.80969 24043 ft 478 kts 252°
2026-04-27 21:13 54.23459 -111.86324 24042 ft 479 kts 252°
2026-04-27 21:13 54.22283 -111.91587 24036 ft 479 kts 252°
2026-04-27 21:13 54.21091 -111.96908 24034 ft 479 kts 252°
2026-04-27 21:13 54.19904 -112.02194 24023 ft 480 kts 252°
2026-04-27 21:14 54.18705 -112.07522 24032 ft 479 kts 252°
2026-04-27 21:14 54.17521 -112.12763 24022 ft 478 kts 252°
2026-04-27 21:14 54.16323 -112.18060 24036 ft 479 kts 252°
2026-04-27 21:14 54.15129 -112.23320 24030 ft 478 kts 252°
2026-04-27 21:15 54.13919 -112.28642 24034 ft 479 kts 252°
2026-04-27 21:15 54.12727 -112.33871 24028 ft 478 kts 252°
2026-04-27 21:15 54.11534 -112.39087 23896 ft 469 kts 252°
2026-04-27 21:15 54.10349 -112.44252 23388 ft 462 kts 252°
2026-04-27 21:16 54.09187 -112.49306 22736 ft 451 kts 252°
2026-04-27 21:16 54.08081 -112.54099 22211 ft 433 kts 252°
2026-04-27 21:16 54.07000 -112.58773 21717 ft 416 kts 252°
2026-04-27 21:16 54.05965 -112.63243 21254 ft 402 kts 252°
2026-04-27 21:17 54.04948 -112.67628 20774 ft 398 kts 251°
2026-04-27 21:17 54.03944 -112.71957 20265 ft 396 kts 251°
2026-04-27 21:17 54.02934 -112.76305 19771 ft 393 kts 251°
2026-04-27 21:17 54.01933 -112.80599 19273 ft 390 kts 251°
2026-04-27 21:18 54.00947 -112.84827 18788 ft 386 kts 251°
2026-04-27 21:18 53.99954 -112.89076 18296 ft 383 kts 251°
2026-04-27 21:18 53.98982 -112.93223 17802 ft 379 kts 251°
2026-04-27 21:18 53.98022 -112.97316 17319 ft 376 kts 251°
2026-04-27 21:19 53.97053 -113.01436 16840 ft 372 kts 251°
2026-04-27 21:19 53.96100 -113.05481 16371 ft 368 kts 251°
2026-04-27 21:19 53.95111 -113.09443 15896 ft 365 kts 245°
2026-04-27 21:20 53.91726 -113.15694 14967 ft 365 kts 214°
2026-04-27 21:20 53.89496 -113.17710 14532 ft 362 kts 208°
2026-04-27 21:20 53.87230 -113.19398 14121 ft 357 kts 205°
2026-04-27 21:20 53.84973 -113.20921 13887 ft 340 kts 204°
2026-04-27 21:21 53.82829 -113.22310 13660 ft 322 kts 203°
2026-04-27 21:21 53.80780 -113.23592 13460 ft 306 kts 202°
2026-04-27 21:21 53.78807 -113.24792 13063 ft 301 kts 202°
2026-04-27 21:21 53.76843 -113.25968 12509 ft 298 kts 201°
2026-04-27 21:22 53.74916 -113.27112 11942 ft 296 kts 201°
2026-04-27 21:22 53.72997 -113.28247 11393 ft 292 kts 201°
2026-04-27 21:22 53.71077 -113.29381 10838 ft 289 kts 201°
2026-04-27 21:22 53.69188 -113.30496 10279 ft 286 kts 201°
2026-04-27 21:23 53.67344 -113.31583 10081 ft 276 kts 201°
2026-04-27 21:23 53.65588 -113.32616 10056 ft 262 kts 201°
2026-04-27 21:23 53.63897 -113.33611 10055 ft 265 kts 201°
2026-04-27 21:23 53.62114 -113.34663 10030 ft 272 kts 201°
2026-04-27 21:24 53.60434 -113.36029 9872 ft 272 kts 218°
2026-04-27 21:24 53.59005 -113.38076 9505 ft 272 kts 224°
2026-04-27 21:24 53.57626 -113.40260 9134 ft 272 kts 224°
2026-04-27 21:24 53.56258 -113.42434 8794 ft 270 kts 224°
2026-04-27 21:25 53.54894 -113.44587 8460 ft 268 kts 224°
2026-04-27 21:25 53.53536 -113.46722 8137 ft 266 kts 224°
2026-04-27 21:25 53.52189 -113.48827 7808 ft 265 kts 223°
2026-04-27 21:25 53.50883 -113.51004 7444 ft 263 kts 234°
2026-04-27 21:26 53.50138 -113.53744 7082 ft 261 kts 259°
2026-04-27 21:26 53.49881 -113.56750 6787 ft 259 kts 263°
2026-04-27 21:26 53.49675 -113.59734 6475 ft 257 kts 263°
2026-04-27 21:26 53.49473 -113.62679 6200 ft 254 kts 263°
2026-04-27 21:27 53.49273 -113.65590 6103 ft 244 kts 262°
2026-04-27 21:27 53.49078 -113.68320 6025 ft 232 kts 258°
2026-04-27 21:27 53.48456 -113.70736 5994 ft 224 kts 232°
2026-04-27 21:27 53.47453 -113.72710 6015 ft 223 kts 226°
2026-04-27 21:28 53.46371 -113.74565 5989 ft 223 kts 224°
2026-04-27 21:28 53.45263 -113.76408 5804 ft 220 kts 224°
2026-04-27 21:28 53.44101 -113.77923 5651 ft 207 kts 200°
2026-04-27 21:28 53.42755 -113.78212 5613 ft 193 kts 173°
2026-04-27 21:29 53.41511 -113.77407 5369 ft 192 kts 147°
2026-04-27 21:29 53.40477 -113.76045 5069 ft 189 kts 139°
2026-04-27 21:29 53.39556 -113.74519 4818 ft 184 kts 133°
2026-04-27 21:29 53.38698 -113.73009 4576 ft 176 kts 136°
2026-04-27 21:30 53.37835 -113.71591 4348 ft 168 kts 136°
2026-04-27 21:30 53.37040 -113.70277 4151 ft 154 kts 136°
2026-04-27 21:30 53.36303 -113.69043 3955 ft 149 kts 137°
2026-04-27 21:30 53.35574 -113.67824 3747 ft 147 kts 137°
2026-04-27 21:31 53.34848 -113.66608 3555 ft 148 kts 137°
2026-04-27 21:31 53.34132 -113.65414 3348 ft 146 kts 136°
2026-04-27 21:31 53.33423 -113.64226 3148 ft 144 kts 136°
2026-04-27 21:31 53.32706 -113.63031 2952 ft 146 kts 137°
2026-04-27 21:32 53.31991 -113.61839 2758 ft 145 kts 137°
2026-04-27 21:32 53.31286 -113.60659 2551 ft 145 kts 137°
2026-04-27 21:32 53.30571 -113.59468 2354 ft 144 kts 135°
2026-04-27 21:32 53.29929 -113.58395 2350 ft 109 kts 135°
2026-04-27 21:33 53.29520 -113.57718 2360 ft 56 kts 135°
2026-04-27 21:33 53.29295 -113.57343 2367 ft 31 kts 134°
2026-04-27 21:33 53.29170 -113.57135 2368 ft 19 kts 134°
2026-04-27 21:33 53.29107 -113.56968 2371 ft 15 kts 100°
2026-04-27 21:34 53.29102 -113.56795 2371 ft 14 kts 90°
2026-04-27 21:34 53.29104 -113.56677 2371 ft 9 kts 79°
2026-04-27 21:34 53.29143 -113.56637 2371 ft 7 kts 347°
2026-04-27 21:34 53.29189 -113.56687 2371 ft 8 kts 315°
2026-04-27 21:35 53.29236 -113.56767 2371 ft 10 kts 314°
2026-04-27 21:35 53.29291 -113.56858 2371 ft 11 kts 314°
2026-04-27 21:35 53.29351 -113.56959 2370 ft 13 kts 315°
2026-04-27 21:35 53.29420 -113.57074 2369 ft 14 kts 314°
2026-04-27 21:36 53.29496 -113.57201 2367 ft 15 kts 314°
2026-04-27 21:36 53.29575 -113.57333 2366 ft 16 kts 314°
2026-04-27 21:36 53.29659 -113.57472 2364 ft 17 kts 315°
2026-04-27 21:36 53.29747 -113.57619 2362 ft 18 kts 314°
2026-04-27 21:37 53.29841 -113.57778 2359 ft 19 kts 314°
2026-04-27 21:37 53.29939 -113.57942 2355 ft 20 kts 315°
2026-04-27 21:37 53.30040 -113.58109 2352 ft 20 kts 314°
2026-04-27 21:37 53.30135 -113.58270 2349 ft 16 kts 315°
2026-04-27 21:38 53.30209 -113.58391 2346 ft 11 kts 316°
2026-04-27 21:38 53.30261 -113.58394 2346 ft 8 kts 43°
2026-04-27 21:38 53.30271 -113.58378 2347 ft 7 kts 44°
2026-04-27 21:38 53.30304 -113.58323 2348 ft 6 kts 44°
2026-04-27 21:39 53.30341 -113.58285 2348 ft 6 kts 23°
2026-04-27 21:39 53.30377 -113.58256 2349 ft 5 kts 30°
2026-04-27 21:39 53.30403 -113.58223 2350 ft 4 kts 42°
2026-04-27 21:39 53.30419 -113.58196 2350 ft 2 kts 45°
2026-04-27 21:40 53.30425 -113.58186 2350 ft 0 kts 45°